Weather History for KTIF - May, 2013

Change the Weather History Date:

Sunday, May 19, 2013

  Actual Average (KLBF) Record (KLBF)
Temperature  
Mean Temperature 60 °F 59 °F  
Max Temperature 66 °F 73 °F 98 °F (1934)
Min Temperature 55 °F 45 °F 29 °F (1981)
Degree Days  
Heating Degree Days 5 7  
Month to date heating degree days 180  
Since 1 July heating degree days 6570  
Cooling Degree Days 0 1  
Month to date cooling degree days 9  
Year to date cooling degree days 12  
Growing Degree Days 10 (Base 50)    
Moisture  
Dew Point 54 °F    
Average Humidity 84    
Maximum Humidity 91    
Minimum Humidity 66    
Precipitation  
Precipitation 0.78 in 0.11 in 1.36 in (1879)
Month to date precipitation 1.87  
Year to date precipitation 6.03  
Snow  
Snow 0.00 in 0.00 in 3.90 in (1915)
Month to date snowfall 0.0  
Since 1 July snowfall 28.5  
Snow Depth -    
Sea Level Pressure  
Sea Level Pressure 29.68 in    
Wind  
Wind Speed 7 mph (WNW)    
Max Wind Speed 17 mph    
Max Gust Speed 24 mph    
Visibility 9 miles    
Events Rain , Thunderstorm    
T = Trace of Precipitation, MM = Missing Value Source: NWS Daily Summary

Daily Weather History Graph

Daily Weather History Graph

Search for Another Location

Airport or City:

Trip Planner

Search our weather history database for the weather conditions in past years. The results will help you decide how hot, cold, wet, or windy it might be!

Date:

Astronomy

May. 19, 2013 Rise Set
Actual Time 6:17 AM CDT 9:00 PM CDT
Civil Twilight 5:45 AM CDT 9:32 PM CDT
Nautical Twilight 5:04 AM CDT 10:13 PM CDT
Astronomical Twilight 4:18 AM CDT 11:00 PM CDT
Moon 3:00 PM CDT (5/19) 2:48 AM CDT (5/19)
Length of Visible Light 15h 47m
Length of Day
14h 42m
Waxing Gibbous, 65% of the Moon is Illuminated
May 19
Waxing Gibbous
May 24
Full
May 31
Last Quarter
Jun 8
New
Jun 16
First Quarter

Hourly Weather History & Observations

Time (CDT) Temp. Dew Point Humidity Pressure Visibility Wind Dir Wind Speed Gust Speed Precip Events Conditions
12:15 AM 56.5 °F 52.9 °F 88% 29.73 in 10.0 mi NW 11.5 mph - N/A   Clear
12:35 AM 56.7 °F 52.9 °F 87% 29.72 in 10.0 mi NW 9.2 mph - N/A   Clear
12:55 AM 56.7 °F 52.9 °F 87% 29.72 in 10.0 mi WNW 8.1 mph - N/A   Clear
1:15 AM 56.3 °F 52.7 °F 88% 29.73 in 10.0 mi Calm Calm - N/A   Clear
1:35 AM 56.5 °F 52.7 °F 87% 29.74 in 10.0 mi Calm Calm - N/A   Clear
1:55 AM 55.8 °F 52.7 °F 89% 29.74 in 10.0 mi Calm Calm - N/A   Clear
2:15 AM 55.9 °F 52.7 °F 89% 29.75 in 10.0 mi SW 3.5 mph - N/A   Clear
2:35 AM 55.9 °F 52.9 °F 89% 29.75 in 10.0 mi SW 5.8 mph - N/A   Clear
2:55 AM 55.9 °F 52.9 °F 89% 29.74 in 10.0 mi Calm Calm - N/A   Clear
3:15 AM 56.1 °F 52.7 °F 88% 29.72 in 10.0 mi WNW 3.5 mph - N/A   Clear
3:35 AM 55.8 °F 52.7 °F 89% 29.71 in 10.0 mi WNW 5.8 mph - N/A   Mostly Cloudy
3:55 AM 55.9 °F 52.9 °F 89% 29.71 in 10.0 mi NE 3.5 mph - N/A   Overcast
4:15 AM 56.3 °F 52.3 °F 87% 29.71 in 10.0 mi East 6.9 mph - N/A Thunderstorm Mostly Cloudy
4:35 AM 56.5 °F 53.1 °F 88% 29.75 in 10.0 mi SSW 6.9 mph - N/A   Mostly Cloudy
4:55 AM 56.7 °F 53.1 °F 88% 29.74 in 10.0 mi Calm Calm - N/A Rain Light Rain
5:15 AM 56.8 °F 52.9 °F 87% 29.79 in 10.0 mi SW 12.7 mph - 0.01 in Rain Light Rain
5:35 AM 57.2 °F 52.7 °F 85% 29.79 in 10.0 mi SW 8.1 mph - 0.01 in Rain Light Rain
5:55 AM 56.7 °F 53.1 °F 88% 29.77 in 7.0 mi West 4.6 mph - 0.04 in Rain Rain
6:15 AM 56.7 °F 53.2 °F 88% 29.76 in 10.0 mi WSW 5.8 mph - 0.02 in Rain Light Rain
6:35 AM 56.3 °F 53.1 °F 89% 29.74 in 10.0 mi WNW 3.5 mph - 0.02 in   Scattered Clouds
7:15 AM 56.1 °F 53.4 °F 91% 29.73 in 10.0 mi Calm Calm - N/A   Scattered Clouds
7:35 AM 56.3 °F 53.6 °F 91% 29.71 in 10.0 mi Calm Calm - N/A   Scattered Clouds
7:55 AM 56.3 °F 53.8 °F 91% 29.67 in 10.0 mi NNW 3.5 mph - N/A   Mostly Cloudy
8:15 AM 58.1 °F 54.7 °F 88% 29.71 in 10.0 mi SW 4.6 mph - N/A   Scattered Clouds
8:35 AM 59.2 °F 54.0 °F 83% 29.69 in 10.0 mi NW 3.5 mph - N/A   Mostly Cloudy
8:55 AM 59.9 °F 54.5 °F 82% 29.68 in 10.0 mi NW 5.8 mph - N/A   Scattered Clouds
9:15 AM 61.9 °F 55.0 °F 78% 29.69 in 10.0 mi NW 9.2 mph - N/A   Clear
9:55 AM 62.6 °F 54.0 °F 73% 29.69 in 10.0 mi NW 8.1 mph - N/A   Clear
10:15 AM 62.4 °F 54.0 °F 74% 29.72 in 10.0 mi WSW 9.2 mph - N/A   Mostly Cloudy
10:35 AM 61.0 °F 54.0 °F 78% 29.71 in 7.0 mi West 5.8 mph - 0.01 in Rain Heavy Rain
10:55 AM 60.3 °F 55.6 °F 85% 29.69 in 10.0 mi West 6.9 mph - 0.08 in Rain Light Rain
11:15 AM 61.3 °F 55.9 °F 82% 29.69 in 10.0 mi WNW 5.8 mph - N/A   Overcast
11:35 AM 61.7 °F 55.8 °F 81% 29.69 in 10.0 mi WNW 4.6 mph - N/A   Overcast
11:55 AM 62.8 °F 56.8 °F 81% 29.68 in 10.0 mi Calm Calm - N/A   Overcast
12:15 PM 63.1 °F 55.2 °F 75% 29.68 in 10.0 mi North 3.5 mph - N/A   Overcast
12:35 PM 62.8 °F 55.6 °F 77% 29.68 in 1.5 mi Calm Calm - 0.04 in Rain Heavy Rain
12:55 PM 62.6 °F 56.3 °F 80% 29.68 in 10.0 mi Calm Calm - 0.06 in Rain Light Rain
1:15 PM 63.5 °F 54.7 °F 73% 29.68 in 10.0 mi Calm Calm - N/A   Light Drizzle
1:35 PM 63.7 °F 55.2 °F 74% 29.67 in 10.0 mi Calm Calm - N/A   Overcast
2:15 PM 64.6 °F 54.7 °F 70% 29.66 in 10.0 mi Calm Calm - N/A   Overcast
2:35 PM 65.7 °F 54.1 °F 66% 29.65 in 10.0 mi Calm Calm - N/A   Overcast
3:15 PM 65.8 °F 54.7 °F 67% 29.65 in 10.0 mi Calm Calm - N/A Thunderstorm Thunderstorm
3:35 PM 65.5 °F 55.0 °F 69% 29.65 in 10.0 mi WSW 5.8 mph - N/A Thunderstorm Overcast
3:55 PM 63.7 °F 55.6 °F 75% 29.63 in 10.0 mi WNW 11.5 mph - N/A Thunderstorm Thunderstorm
4:15 PM 61.5 °F 56.3 °F 83% 29.63 in 7.0 mi NW 11.5 mph 16.1 mph 0.02 in Rain , Thunderstorm Rain
4:35 PM 59.0 °F 55.6 °F 88% 29.64 in 3.0 mi NW 8.1 mph - 0.30 in Rain , Thunderstorm Heavy Thunderstorms and Rain
4:55 PM 59.0 °F 55.0 °F 87% 29.63 in 10.0 mi North 8.1 mph - 0.31 in Rain Light Rain
5:15 PM 59.0 °F 55.0 °F 87% 29.63 in 10.0 mi North 8.1 mph - N/A   Overcast
5:35 PM 57.9 °F 54.0 °F 87% 29.62 in 10.0 mi NNW 9.2 mph - N/A Rain , Thunderstorm Light Thunderstorms and Rain
5:55 PM 58.1 °F 54.5 °F 88% 29.63 in 7.0 mi SSW 8.1 mph - 0.03 in Rain , Thunderstorm Heavy Thunderstorms and Rain
6:15 PM 57.2 °F 54.5 °F 91% 29.62 in 2.5 mi West 10.4 mph - 0.15 in Rain Heavy Rain
6:35 PM 57.2 °F 54.5 °F 91% 29.59 in 7.0 mi West 9.2 mph - 0.19 in Rain Rain
6:55 PM 58.5 °F 55.4 °F 90% 29.59 in 10.0 mi WNW 11.5 mph - 0.19 in   Light Drizzle
7:15 PM 58.8 °F 54.9 °F 87% 29.59 in 10.0 mi NW 12.7 mph 16.1 mph N/A   Scattered Clouds
7:35 PM 59.2 °F 54.1 °F 83% 29.59 in 10.0 mi NW 17.3 mph 24.2 mph N/A   Mostly Cloudy
7:55 PM 59.0 °F 54.3 °F 84% 29.61 in 10.0 mi NW 13.8 mph 19.6 mph N/A   Overcast
8:15 PM 58.5 °F 52.7 °F 81% 29.62 in 10.0 mi NW 16.1 mph 21.9 mph N/A   Overcast
8:35 PM 58.1 °F 53.1 °F 83% 29.62 in 10.0 mi NW 11.5 mph - N/A   Overcast
8:55 PM 58.1 °F 53.2 °F 84% 29.62 in 10.0 mi NNW 12.7 mph 16.1 mph N/A   Overcast
9:15 PM 58.5 °F 53.6 °F 84% 29.62 in 10.0 mi NNW 16.1 mph 19.6 mph N/A   Overcast
9:35 PM 58.1 °F 53.6 °F 85% 29.63 in 10.0 mi NNW 13.8 mph - N/A   Overcast
9:55 PM 58.1 °F 54.0 °F 86% 29.63 in 10.0 mi NNW 12.7 mph 17.3 mph N/A   Overcast
10:15 PM 58.3 °F 54.5 °F 87% 29.64 in 10.0 mi NNW 11.5 mph - N/A   Overcast
10:35 PM 58.3 °F 54.5 °F 87% 29.66 in 10.0 mi NW 9.2 mph - N/A   Overcast
11:15 PM 56.7 °F 52.9 °F 87% 29.67 in 10.0 mi NNW 15.0 mph 19.6 mph N/A Rain Light Rain
11:35 PM 56.3 °F 52.7 °F 88% 29.67 in 10.0 mi NNW 12.7 mph 18.4 mph 0.02 in Rain Light Rain
11:55 PM 55.9 °F 52.7 °F 89% 29.66 in 10.0 mi NNW 17.3 mph 20.7 mph 0.05 in Rain Rain